Location: Newark
(49.1147°N, 0.4158°E)
Time: 22:27:16
(UTC+00:00)

Envisat - Visible Passes

Search period start: 15 October 2019 00:00
Search period end: 25 October 2019 00:00
Orbit: 764 x 766 km, 98.1° (Epoch: 15 October)

Date Brightness Start Highest point End Pass type
(mag) Time Alt. Az. Time Alt. Az. Time Alt. Az.
15 Oct 5.2 18:58:23 10° SSW 19:02:40 27° W 19:07:00 10° NW visible
16 Oct 6.6 05:25:28 10° ENE 05:27:10 12° E 05:28:52 10° ESE visible
16 Oct 3.8 18:20:42 10° S 18:25:40 55° W 18:30:41 10° NNW visible
17 Oct 3.0 17:43:48 10° SSE 17:48:51 75° ENE 17:53:57 10° N visible
17 Oct 5.9 19:25:15 10° SW 19:28:28 17° W 19:31:42 10° NW visible
18 Oct 6.0 05:49:23 10° NE 05:53:02 19° E 05:56:40 10° SE visible
18 Oct 4.8 18:46:45 10° SSW 18:51:19 33° W 18:55:55 10° NNW visible
19 Oct 3.4 18:09:20 10° S 18:14:22 67° WSW 18:19:28 10° NNW visible
20 Oct 3.0 17:32:37 10° SSE 17:37:37 62° ENE 17:42:38 10° N visible
20 Oct 5.6 19:13:19 10° SW 19:17:04 21° W 19:20:51 10° NW visible
21 Oct 6.2 05:38:35 10° NE 05:41:38 16° E 05:44:41 10° SE visible
21 Oct 4.4 18:35:12 10° SSW 18:39:59 41° W 18:44:47 10° NNW visible
22 Oct 3.1 17:58:00 10° SSE 18:03:05 83° WSW 18:08:13 10° NNW visible
22 Oct 6.1 19:40:53 10° WSW 19:42:56 12° W 19:44:59 10° WNW visible
23 Oct 3.2 17:21:31 10° SE 17:26:24 50° ENE 17:31:19 10° N visible
23 Oct 5.3 19:01:32 10° SSW 19:05:42 25° W 19:09:53 10° NW visible
24 Oct 6.4 05:28:01 10° ENE 05:30:13 13° E 05:32:24 10° ESE visible
24 Oct 4.0 18:23:44 10° S 18:28:39 50° W 18:33:37 10° NNW visible
